Total_Precipitation_Accumulation
4.23 4.21 4.17 4.34 3.95 3.98 4.35 4.41 4.02 4.04 4.11 3.87 3.48 3.34 3.37 3.25 3.26 3.17 3.31 3.47 3.29 3.40 3.80 3.77 3.66 3.44 3.22 2.88 2.64 2.51 2.39 2.26 1.99 1.63 1.47 1.41 1.36 1.28 1.28 1.31 1.22 1.11 1.04
4.17 4.30 4.29 4.34 3.88 3.69 3.86 4.00 3.89 4.06 4.03 3.91 3.46 3.22 3.20 3.39 3.41 3.24 3.29 3.62 3.51 3.19 3.35 3.61 3.80 3.81 3.61 3.39 3.11 2.84 2.67 2.52 2.15 1.67 1.42 1.38 1.35 1.31 1.41 1.48 1.34 1.17 1.08
4.22 4.42 4.39 4.23 4.06 3.98 3.97 3.90 3.92 4.22 3.94 3.76 3.56 3.46 3.40 3.43 3.26 3.20 3.24 3.52 3.17 2.99 3.00 3.12 3.46 3.75 4.01 4.04 3.77 3.50 3.12 2.73 2.28 1.86 1.56 1.41 1.31 1.28 1.39 1.46 1.45 1.30 1.09
3.89 4.31 4.14 3.87 4.05 4.13 4.21 4.15 4.06 4.17 4.20 4.25 4.13 3.93 3.66 3.53 2.91 2.86 2.94 3.04 3.18 2.75 2.87 3.10 3.20 3.33 3.89 4.45 4.67 4.57 3.95 3.26 2.69 2.18 1.86 1.64 1.56 1.53 1.47 1.46 1.49 1.43 1.25
3.14 3.36 3.33 3.36 3.40 3.59 3.52 3.28 3.66 3.88 4.11 4.28 4.03 3.86 3.45 3.29 3.00 2.87 2.92 2.63 2.79 2.83 2.87 2.93 3.14 3.18 3.69 4.62 5.49 5.74 5.23 4.37 3.55 2.81 2.47 2.27 2.10 1.90 1.76 1.66 1.61 1.56 1.42
2.76 2.96 2.79 2.87 3.05 3.31 3.36 3.42 3.66 3.60 3.53 3.71 3.33 3.32 3.25 2.99 2.93 2.90 2.69 2.60 2.62 2.57 2.69 2.93 3.19 2.84 3.37 4.25 5.14 5.65 5.79 5.35 4.52 3.77 3.36 3.05 2.89 2.53 2.03 1.79 1.68 1.60 1.49
2.75 3.05 2.77 3.12 3.13 3.21 3.20 3.11 3.25 3.23 2.99 3.12 3.62 3.59 3.17 2.91 2.91 2.77 2.62 2.71 2.53 2.52 2.72 3.00 3.25 3.28 2.96 2.97 3.54 4.23 5.13 5.72 5.35 4.61 4.12 3.75 3.54 3.04 2.38 2.10 1.84 1.68 1.59
2.64 2.72 2.89 2.75 2.81 3.03 2.93 2.87 3.20 3.20 2.86 2.93 3.46 3.73 3.58 3.60 3.32 2.57 2.51 2.63 2.61 2.66 2.71 2.77 3.10 3.36 3.18 3.40 2.83 2.94 4.00 5.02 5.58 5.50 4.93 4.19 3.62 3.10 2.65 2.46 2.15 1.90 1.80
2.29 2.45 2.54 2.67 2.79 2.70 2.82 2.90 2.99 3.13 3.07 2.90 2.96 3.54 3.57 3.44 3.31 2.96 2.54 2.42 2.61 2.87 2.81 2.83 2.82 2.96 3.03 3.41 3.33 2.96 3.23 3.51 4.62 5.61 5.47 4.53 3.55 2.89 2.63 2.70 2.64 2.24 2.00
2.14 2.09 2.22 2.48 2.63 2.58 2.84 2.57 2.73 3.01 3.14 2.89 2.89 2.97 2.98 3.09 3.29 3.13 2.72 2.37 2.36 2.50 2.64 2.59 2.72 2.87 2.97 3.23 3.38 2.97 2.60 2.57 3.23 4.31 4.89 4.78 4.00 3.13 2.75 2.89 3.24 3.11 2.60
2.11 2.00 2.08 2.30 2.45 2.51 2.61 2.64 2.95 2.89 2.81 2.80 2.81 2.92 3.02 2.99 2.84 2.89 2.91 2.62 2.42 2.23 2.31 2.48 2.66 2.89 2.89 3.01 3.27 2.96 2.73 2.56 2.42 2.69 3.32 3.83 3.95 3.65 3.29 3.36 3.94 4.33 4.14
2.20 2.28 2.24 2.30 2.28 2.31 2.39 2.52 2.76 2.75 2.70 2.78 2.68 2.60 2.85 3.00 2.97 3.02 2.87 2.60 2.42 2.16 2.10 2.20 2.49 2.79 2.90 2.87 2.55 2.48 2.52 2.54 2.37 2.23 2.32 2.61 3.01 3.27 3.47 3.80 4.34 4.94 5.26
1.90 2.17 2.33 2.40 2.41 2.40 2.32 2.44 2.53 2.53 2.59 2.74 2.66 2.53 2.53 2.55 2.76 2.98 2.99 2.59 2.38 2.14 2.28 2.26 2.22 2.30 2.36 2.49 2.54 2.48 2.21 2.24 2.07 1.96 1.98 2.09 2.31 2.59 2.85 3.12 3.60 4.15 4.60
1.59 1.81 2.08 2.20 2.20 2.16 2.15 2.59 2.39 2.34 2.51 2.60 2.52 2.84 2.68 2.44 2.64 2.83 2.95 2.98 2.78 2.63 2.67 2.46 2.17 2.11 2.20 2.30 2.41 2.34 1.95 2.01 1.86 1.76 1.61 1.56 1.62 1.72 1.88 2.11 2.40 2.69 3.01
1.64 1.71 1.76 2.04 2.15 2.10 2.14 2.38 2.33 2.29 2.45 2.45 2.59 2.85 2.80 2.64 2.64 2.66 2.87 3.16 3.36 3.20 2.93 2.61 2.28 2.03 2.06 2.16 2.22 1.90 1.82 2.09 1.90 1.67 1.51 1.45 1.44 1.46 1.50 1.55 1.59 1.69 1.77
1.70 1.75 1.83 1.83 1.93 2.07 2.17 2.32 2.19 2.15 2.29 2.38 2.54 2.70 2.69 2.60 2.65 2.57 2.70 2.97 3.24 3.31 2.95 2.52 2.33 2.15 2.08 1.84 1.99 1.77 1.72 1.89 1.75 1.66 1.57 1.47 1.38 1.39 1.42 1.40 1.36 1.35 1.38
1.64 1.65 1.69 1.76 1.77 1.87 2.14 2.43 2.34 2.34 2.39 2.41 2.42 2.59 2.67 2.84 2.89 2.77 2.75 2.76 2.93 3.13 2.90 2.53 2.36 2.24 2.05 1.86 1.79 1.66 1.56 1.56 1.52 1.60 1.51 1.41 1.29 1.23 1.28 1.29 1.29 1.25 1.19
1.56 1.47 1.52 1.59 1.54 1.66 1.92 2.23 2.39 2.53 2.67 2.63 2.65 2.82 2.85 2.87 2.84 2.74 2.76 2.74 2.76 3.02 2.94 2.64 2.52 2.39 2.18 1.94 1.84 1.76 1.53 1.43 1.48 1.75 1.65 1.44 1.35 1.33 1.27 1.18 1.12 1.11 1.15
1.64 1.64 1.66 1.63 1.74 1.83 1.85 2.02 2.23 2.34 2.46 2.54 2.68 2.73 2.69 2.82 2.73 2.71 2.59 2.57 2.60 2.76 3.01 2.81 2.68 2.67 2.51 2.22 2.07 1.89 1.72 1.72 1.44 1.55 1.62 1.51 1.42 1.38 1.27 1.19 1.15 1.13 1.08
1.70 1.74 1.74 1.77 1.87 1.89 1.84 1.95 2.12 2.25 2.32 2.39 2.52 2.63 2.69 2.70 2.73 2.87 2.72 2.70 2.85 2.96 3.06 2.98 2.84 2.90 2.87 2.65 2.41 2.16 1.96 1.84 1.64 1.38 1.49 1.50 1.47 1.40 1.31 1.21 1.16 1.14 1.14
1.76 1.85 1.91 1.88 1.89 1.80 1.70 1.94 2.09 2.12 2.32 2.38 2.38 2.37 2.46 2.70 2.75 2.79 2.57 2.71 2.92 2.92 2.87 2.88 2.84 2.97 2.99 2.88 2.57 2.27 2.11 2.06 1.90 1.67 1.57 1.39 1.38 1.38 1.40 1.42 1.38 1.32 1.23
1.97 2.09 2.13 2.14 2.05 1.77 1.96 2.05 2.08 2.19 2.32 2.32 2.34 2.30 2.21 2.22 2.30 2.42 2.42 2.44 2.59 2.71 2.80 2.82 2.78 2.85 2.88 2.83 2.71 2.50 2.35 2.23 2.08 2.01 2.07 1.90 1.68 1.66 1.52 1.40 1.49 1.43 1.32
2.17 2.19 2.17 2.20 2.17 2.17 2.18 1.93 1.86 1.86 1.95 1.98 1.99 2.01 1.80 1.71 2.03 2.09 2.26 2.24 2.12 2.17 2.26 2.48 2.58 2.55 2.71 2.80 2.89 2.65 2.55 2.40 2.17 2.16 2.29 2.15 1.98 1.82 1.58 1.50 1.66 1.48 1.40
2.50 2.43 2.34 2.36 2.42 2.38 2.40 2.07 1.95 1.81 1.81 1.78 1.76 1.74 1.77 1.77 1.82 2.00 2.09 2.06 1.96 1.92 1.96 1.97 2.05 2.27 2.49 2.77 2.90 2.83 2.84 2.66 2.36 2.21 2.28 2.22 1.99 1.88 1.68 1.62 1.67 1.53 1.40
2.96 2.85 2.79 2.83 2.82 2.89 2.90 2.52 2.34 2.06 1.97 1.85 1.86 1.92 1.96 1.81 1.87 1.90 1.94 1.90 1.85 1.88 1.93 1.94 1.92 2.06 2.27 2.44 2.72 2.77 2.71 2.62 2.35 2.22 2.25 2.22 2.03 2.03 1.92 1.73 1.60 1.58 1.31
3.36 3.36 3.36 3.38 3.31 3.30 3.27 2.84 2.65 2.36 2.28 2.20 2.21 2.09 1.99 1.79 1.74 1.69 1.70 1.74 1.65 1.64 1.81 1.89 1.87 1.91 2.03 2.20 2.47 2.48 2.45 2.53 2.34 2.18 2.04 2.16 2.13 2.17 2.13 1.82 1.58 1.48 1.37